PHENX84 YCFH-YPDI

Flight info

Callsign PHENX84
Flight time 0h 14m
Altitude 1500
Route DCT
Aircraft EC45/L-SDFGRY/C

Departure

Time 2026-05-05 11:52
Airport Clifton Hills Airport (YCFH)

Arrival

Time 2026-05-05 12:07
Airport Pandie Pandie Airport (YPDI)
Time Latitude Longitude Altitude Speed Heading
2026-05-05 11:43 -27.01544 138.89184 103 ft 0 kts 280°
2026-05-05 11:44 -27.01544 138.89183 103 ft 2 kts 277°
2026-05-05 11:44 -27.01540 138.89172 115 ft 2 kts 262°
2026-05-05 11:44 -27.01527 138.89161 171 ft 6 kts
2026-05-05 11:44 -27.01338 138.89241 414 ft 49 kts 18°
2026-05-05 11:45 -27.00936 138.89437 675 ft 76 kts 30°
2026-05-05 11:45 -27.00368 138.89682 656 ft 91 kts 24°
2026-05-05 11:45 -26.99694 138.89993 603 ft 120 kts 26°
2026-05-05 11:45 -26.98896 138.90387 613 ft 124 kts 25°
2026-05-05 11:46 -26.98099 138.90774 598 ft 125 kts 25°
2026-05-05 11:46 -26.97297 138.91154 589 ft 125 kts 25°
2026-05-05 11:46 -26.96456 138.91566 582 ft 136 kts 25°
2026-05-05 11:46 -26.95593 138.91984 575 ft 136 kts 25°
2026-05-05 11:47 -26.94723 138.92400 579 ft 137 kts 25°
2026-05-05 11:47 -26.93847 138.92817 578 ft 136 kts 25°
2026-05-05 11:47 -26.92970 138.93231 577 ft 139 kts 26°
2026-05-05 11:47 -26.92081 138.93649 575 ft 139 kts 25°
2026-05-05 11:48 -26.90334 138.94471 578 ft 136 kts 25°
2026-05-05 11:48 -26.89462 138.94884 576 ft 136 kts 25°
2026-05-05 11:48 -26.88605 138.95320 577 ft 136 kts 28°
2026-05-05 11:49 -26.87760 138.95787 577 ft 135 kts 30°
2026-05-05 11:49 -26.86927 138.96274 581 ft 135 kts 29°
2026-05-05 11:49 -26.86093 138.96769 577 ft 136 kts 30°
2026-05-05 11:49 -26.85263 138.97275 577 ft 136 kts 34°
2026-05-05 11:50 -26.84569 138.97914 575 ft 134 kts 41°
2026-05-05 11:50 -26.83867 138.98591 577 ft 133 kts 39°
2026-05-05 11:50 -26.83099 138.99263 574 ft 151 kts 46°
2026-05-05 11:50 -26.82200 138.99974 576 ft 165 kts 38°
2026-05-05 11:51 -26.81206 139.00673 577 ft 172 kts 26°
2026-05-05 11:51 -26.80144 139.01359 583 ft 177 kts
2026-05-05 11:51 -26.79102 139.01995 568 ft 174 kts 26°
2026-05-05 11:51 -26.78025 139.02631 589 ft 170 kts 27°
2026-05-05 11:52 -26.76970 139.03244 634 ft 169 kts 31°
2026-05-05 11:52 -26.75959 139.03825 876 ft 161 kts 32°
2026-05-05 11:52 -26.75052 139.04339 1271 ft 130 kts 35°
2026-05-05 11:52 -26.74277 139.04778 1533 ft 127 kts 36°
2026-05-05 11:53 -26.73483 139.05231 1664 ft 129 kts 31°
2026-05-05 11:53 -26.72679 139.05681 1719 ft 129 kts 31°
2026-05-05 11:53 -26.71879 139.06122 1736 ft 128 kts 31°
2026-05-05 11:53 -26.71075 139.06570 1748 ft 130 kts 28°
2026-05-05 11:54 -26.70278 139.07013 1737 ft 131 kts 32°
2026-05-05 11:54 -26.69374 139.07543 1731 ft 161 kts 30°
2026-05-05 11:54 -26.68366 139.08129 1753 ft 164 kts 28°
2026-05-05 11:54 -26.67345 139.08705 1752 ft 167 kts 30°
2026-05-05 11:55 -26.66282 139.09311 1759 ft 173 kts 29°
2026-05-05 11:55 -26.65215 139.09911 1757 ft 172 kts 29°
2026-05-05 11:55 -26.64147 139.10513 1762 ft 171 kts 29°
2026-05-05 11:55 -26.63090 139.11108 1757 ft 171 kts 28°
2026-05-05 11:56 -26.62011 139.11720 1761 ft 175 kts 28°
2026-05-05 11:56 -26.60930 139.12329 1760 ft 173 kts 28°
2026-05-05 11:56 -26.59851 139.12937 1763 ft 174 kts 28°
2026-05-05 11:56 -26.58772 139.13545 1746 ft 178 kts 30°
2026-05-05 11:57 -26.57659 139.14183 1752 ft 180 kts 30°
2026-05-05 11:57 -26.56542 139.14819 1758 ft 181 kts 29°
2026-05-05 11:57 -26.55415 139.15460 1761 ft 183 kts 28°
2026-05-05 11:57 -26.54278 139.16102 1762 ft 184 kts 28°
2026-05-05 11:58 -26.53137 139.16745 1760 ft 183 kts 28°
2026-05-05 11:58 -26.52001 139.17383 1757 ft 183 kts 30°
2026-05-05 11:58 -26.50875 139.18019 1761 ft 184 kts 29°
2026-05-05 11:58 -26.49715 139.18672 1761 ft 184 kts 28°
2026-05-05 11:59 -26.48593 139.19303 1758 ft 183 kts 29°
2026-05-05 11:59 -26.47459 139.19942 1760 ft 182 kts 30°
2026-05-05 11:59 -26.46326 139.20582 1758 ft 182 kts 30°
2026-05-05 11:59 -26.45202 139.21217 1763 ft 181 kts 29°
2026-05-05 12:00 -26.44075 139.21854 1761 ft 182 kts 28°
2026-05-05 12:00 -26.42937 139.22497 1759 ft 184 kts 28°
2026-05-05 12:00 -26.41796 139.23141 1758 ft 184 kts 28°
2026-05-05 12:00 -26.40660 139.23780 1760 ft 182 kts 29°
2026-05-05 12:01 -26.39540 139.24409 1760 ft 180 kts 29°
2026-05-05 12:01 -26.38424 139.25038 1759 ft 180 kts 29°
2026-05-05 12:01 -26.37304 139.25670 1759 ft 182 kts 29°
2026-05-05 12:01 -26.36173 139.26308 1751 ft 182 kts 28°
2026-05-05 12:02 -26.35038 139.26947 1761 ft 184 kts 28°
2026-05-05 12:02 -26.33895 139.27589 1759 ft 184 kts 30°
2026-05-05 12:02 -26.32756 139.28229 1758 ft 183 kts 30°
2026-05-05 12:02 -26.31614 139.28871 1762 ft 184 kts 30°
2026-05-05 12:03 -26.30470 139.29513 1763 ft 183 kts 29°
2026-05-05 12:03 -26.29338 139.30145 1755 ft 182 kts 30°
2026-05-05 12:03 -26.28204 139.30783 1757 ft 183 kts 29°
2026-05-05 12:03 -26.27069 139.31424 1759 ft 184 kts 30°
2026-05-05 12:04 -26.25928 139.32067 1763 ft 183 kts 30°
2026-05-05 12:04 -26.24799 139.32698 1763 ft 180 kts 30°
2026-05-05 12:04 -26.23677 139.33325 1752 ft 181 kts 31°
2026-05-05 12:04 -26.22552 139.33958 1760 ft 181 kts 30°
2026-05-05 12:05 -26.21433 139.34587 1759 ft 180 kts 28°
2026-05-05 12:05 -26.20316 139.35214 1759 ft 179 kts 29°
2026-05-05 12:05 -26.19201 139.35841 1758 ft 180 kts 30°
2026-05-05 12:05 -26.18075 139.36475 1756 ft 182 kts 31°
2026-05-05 12:06 -26.16947 139.37109 1757 ft 183 kts 29°
2026-05-05 12:06 -26.15814 139.37744 1760 ft 181 kts 28°
2026-05-05 12:06 -26.14694 139.38370 1760 ft 180 kts 29°
2026-05-05 12:06 -26.13614 139.38990 1193 ft 170 kts 34°
2026-05-05 12:07 -26.13213 139.39499 718 ft 35 kts 162°
2026-05-05 12:07 -26.13495 139.39473 390 ft 64 kts 198°
2026-05-05 12:07 -26.13867 139.39314 495 ft 78 kts 246°
2026-05-05 12:07 -26.13176 139.38982 323 ft 112 kts 340°
2026-05-05 12:08 -26.12775 139.38928 173 ft 18 kts 330°
2026-05-05 12:08 -27.01538 138.89191 111 ft 0 kts 282°
2026-05-05 12:08 -27.01533 138.89190 106 ft 5 kts 275°
2026-05-05 12:08 -27.01563 138.89170 135 ft 21 kts 155°
2026-05-05 12:09 -27.01704 138.89306 143 ft 29 kts 149°
2026-05-05 12:09 -27.01778 138.89368 102 ft 0 kts 142°